[[{"header":{"parameterUnit":"m.s-1","parameterCategory":2,"la1":30.2991,"la2":30.254,"lo1":-89.0895,"lo2":-89.0444,"dy":0.0017,"dx":0.0017,"nx":28,"ny":28,"refTime":"2025-08-09T21:00:00:Z","depth":"0","parameterNumber":2,"parameterNumberName":"U-component_of_CURRENTS"},"data":[0,0,0,0,0,0,0,0,0,0,0,0,0,0,0,0,0,0,0,0,0,0,0,0,0,0,0,0,0,0,0,0,0,0,0,0,0,0,0,0,0,0,0,0,0,0,0,0,0,0,0,0,0,0,0,0,0,0,-0.2192,-0.2192,0,-0.2201,-0.2201,-0.2201,-0.2163,-0.2162,-0.2161,-0.216,-0.2109,-0.2109,-0.2108,0,0,0,0,0,0,0,0,0,0,0,0,0,-0.2144,-0.2145,-0.2192,-0.2192,-0.2193,-0.2201,-0.2201,-0.2201,-0.2163,-0.2162,-0.2161,-0.216,-0.211,-0.2109,-0.2108,0,0,0,0,0,0,0,0,0,0,0,0,0,-0.2158,-0.2146,-0.2192,-0.2176,-0.2175,-0.2201,-0.2201,-0.2201,-0.2163,-0.2162,-0.2161,-0.2159,-0.211,-0.2109,-0.2108,-0.2131,0,0,-0.2106,-0.2106,0,0,0,0,0,0,0,0,-0.2158,-0.216,-0.2178,-0.2178,-0.2176,-0.2181,-0.2165,-0.2175,-0.2164,-0.2166,-0.216,-0.2159,-0.213,-0.2128,-0.213,-0.2128,-0.2126,-0.2106,-0.2105,-0.2105,-0.2105,0,0,0,0,0,0,0,-0.2157,-0.2159,-0.2193,-0.2179,-0.2178,-0.217,-0.217,-0.2167,-0.2153,-0.2165,-0.2163,-0.2168,-0.2129,-0.2131,-0.2129,-0.2125,-0.2106,-0.2105,-0.2105,-0.2104,-0.213,-0.2131,0,0,0,0,0,0,-0.2162,-0.2159,-0.2193,-0.2194,-0.2166,-0.2172,-0.2172,-0.2179,-0.2154,-0.215,-0.2169,-0.2166,-0.2133,-0.213,-0.2127,-0.2151,-0.2105,-0.2104,-0.2104,-0.2129,-0.213,-0.2131,0,0,0,0,0,0,-0.2161,-0.2165,-0.2193,-0.2178,-0.2181,-0.2174,-0.2183,-0.218,-0.2177,-0.2158,-0.2152,-0.2168,-0.2132,-0.2128,-0.213,-0.2148,-0.2104,-0.2103,-0.2127,-0.2129,-0.2131,-0.2199,0,0,0,0,0,0,-0.2159,-0.2164,-0.2168,-0.2178,-0.2182,-0.2213,-0.2184,-0.2182,-0.2184,-0.218,-0.2156,-0.215,-0.2131,-0.2132,-0.213,-0.2146,-0.2103,-0.2126,-0.2128,-0.213,-0.2195,-0.2203,-0.2209,0,0,0,0,0,-0.2158,-0.2172,-0.2168,-0.2172,-0.2188,-0.2214,-0.2216,-0.2204,-0.2185,-0.2194,-0.2178,-0.215,-0.2143,-0.2133,-0.213,-0.2146,-0.2125,-0.2127,-0.213,-0.2192,-0.2201,-0.2209,0,0,0,0,0,0,-0.215,-0.217,-0.2166,-0.2183,-0.22,-0.2209,-0.2213,-0.2209,-0.2204,-0.2194,-0.2168,-0.2163,-0.2171,-0.2153,-0.2141,-0.216,-0.2128,-0.213,-0.2177,-0.2185,-0.2192,-0.2196,-0.2102,0,0,0,0,0,-0.2153,-0.2164,-0.2186,-0.2197,-0.2207,-0.2211,-0.2217,-0.2215,-0.2215,-0.2211,-0.2197,-0.2183,-0.2183,-0.2178,-0.2173,-0.2186,-0.2159,-0.2193,-0.2201,-0.2207,-0.2209,-0.2199,-0.2206,-0.214,-0.214,-0.214,0,0,-0.2151,-0.2163,-0.2168,-0.2196,-0.2202,-0.223,-0.221,-0.2226,-0.2245,-0.2207,-0.222,-0.2208,-0.2192,-0.2207,-0.2209,-0.2191,-0.221,-0.221,-0.2215,-0.2214,-0.2203,-0.2209,-0.2215,-0.2141,-0.2141,-0.2141,0,0,-0.216,-0.2167,-0.2183,-0.2205,-0.2227,-0.2238,-0.2245,-0.2261,-0.2263,-0.2282,-0.226,-0.2265,-0.2257,-0.2259,-0.2256,-0.23,-0.2249,-0.229,-0.2327,-0.2318,-0.2324,-0.2328,-0.2294,-0.2295,-0.2292,-0.2292,-0.2292,0,-0.2156,-0.2179,-0.2192,-0.2221,-0.2237,-0.2245,-0.2272,-0.2289,-0.2302,-0.2305,-0.2291,-0.2292,-0.2287,-0.2306,-0.2324,-0.2317,-0.2288,-0.2297,-0.2327,-0.2331,-0.2334,-0.2299,-0.2298,-0.2295,-0.2295,-0.2294,-0.2294,0,-0.2181,-0.2203,-0.2217,-0.2253,-0.2278,-0.2301,-0.2333,-0.235,-0.235,-0.2358,-0.2372,-0.237,-0.2364,-0.2372,-0.2364,-0.2386,-0.2349,-0.2339,-0.2305,-0.2345,-0.2305,-0.2303,-0.23,-0.2299,-0.2298,-0.2297,0,0,-0.2156,-0.2221,-0.2222,-0.2242,-0.2295,-0.2313,-0.2358,-0.2392,-0.2401,-0.2421,-0.2428,-0.2456,-0.2439,-0.2436,-0.2426,-0.243,-0.2438,-0.2397,-0.2394,-0.2362,-0.2392,-0.2295,-0.2283,-0.2425,-0.2425,-0.2425,-0.2352,0,-0.2165,-0.2216,-0.2251,-0.2294,-0.2321,-0.2355,-0.2392,-0.2424,-0.2438,-0.245,-0.2461,-0.2462,-0.2468,-0.2457,-0.247,-0.2442,-0.2438,-0.2457,-0.236,-0.2356,-0.2265,-0.2281,-0.2176,-0.2095,-0.235,-0.235,-0.2349,0,-0.217,-0.2204,-0.2249,-0.2306,-0.232,-0.235,-0.2389,-0.2424,-0.2458,-0.2466,-0.248,-0.2474,-0.2493,-0.2484,-0.2468,-0.2473,-0.2441,-0.2421,-0.2417,-0.2302,-0.2257,-0.2099,-0.2083,-0.2058,-0.2347,-0.2347,-0.2347,0,-0.2127,-0.2196,-0.2226,-0.2249,-0.2321,-0.234,-0.2373,-0.2417,-0.2436,-0.2464,-0.2464,-0.2484,-0.2475,-0.2463,-0.2432,-0.2443,-0.239,-0.2397,-0.2279,-0.2271,-0.215,-0.213,-0.2096,-0.2381,-0.2381,-0.2381,-0.2382,0,-0.2115,-0.2134,-0.2205,-0.222,-0.2246,-0.2309,-0.2331,-0.2366,-0.2407,-0.2417,-0.2457,-0.2454,-0.2469,-0.2441,-0.2421,-0.2332,-0.2378,-0.228,-0.2248,-0.2169,-0.2152,-0.2098,-0.2114,-0.2379,-0.2379,-0.238,-0.238,0,-0.2054,-0.2107,-0.2137,-0.2207,-0.2225,-0.2236,-0.2299,-0.2313,-0.2363,-0.2375,-0.2381,-0.242,-0.238,-0.2367,-0.2329,-0.2293,-0.2178,-0.219,-0.2082,-0.2038,-0.1902,-0.1925,-0.1833,-0.1788,-0.2048,-0.2046,-0.2043,0,-0.2026,-0.2037,-0.2101,-0.211,-0.2136,-0.2171,-0.2192,-0.2269,-0.2287,-0.2343,-0.2336,-0.2322,-0.2273,-0.218,-0.2122,-0.2036,-0.205,-0.1893,-0.1909,-0.1872,-0.1876,-0.1894,-0.1867,-0.1774,-0.177,-0.1766,-0.1764,0,-0.1956,-0.1977,-0.1998,-0.2022,-0.2043,-0.2071,-0.211,-0.2122,-0.2204,-0.2208,-0.2196,-0.2161,-0.209,-0.1951,-0.1854,-0.1807,-0.1828,-0.1814,-0.1812,-0.1684,-0.1666,-0.1614,-0.184,-0.1732,-0.1735,-0.1737,-0.1739,-0.174,-0.188,-0.1874,-0.19,-0.191,-0.1936,-0.1942,-0.1922,-0.197,-0.1968,-0.1948,-0.2005,-0.1906,-0.1821,-0.1665,-0.1617,-0.1498,-0.1585,-0.1457,-0.1493,-0.152,-0.1462,-0.1603,-0.1439,-0.144,-0.1442,-0.1443,-0.1444,0,-0.1774,-0.1779,-0.1786,-0.1791,-0.1768,-0.1823,-0.1838,-0.1791,-0.1738,-0.1744,-0.1694,-0.1572,-0.1426,-0.1379,-0.1265,-0.1199,-0.1206,-0.1185,-0.1212,-0.1205,-0.1344,-0.1316,-0.1074,-0.1074,-0.1074,-0.1074,-0.1074,-0.1075,-0.1718,-0.1682,-0.1688,-0.1613,-0.1611,-0.1537,-0.1513,-0.1462,-0.1436,-0.1318,-0.1257,-0.1248,-0.1201,-0.1192,-0.1085,-0.1042,-0.1047,-0.0997,-0.1055,-0.1182,-0.1212,-0.124,-0.1219,-0.096,-0.096,-0.0865,-0.0865,-0.0864]},{"header":{"parameterUnit":"m.s-1","parameterCategory":2,"la1":30.2991,"la2":30.254,"lo1":-89.0895,"lo2":-89.0444,"dy":0.0017,"dx":0.0017,"nx":28,"ny":28,"refTime":"2025-08-09T21:00:00:Z","depth":"0","parameterNumber":3,"parameterNumberName":"V-component_of_CURRENTS"},"data":[0,0,0,0,0,0,0,0,0,0,0,0,0,0,0,0,0,0,0,0,0,0,0,0,0,0,0,0,0,0,0,0,0,0,0,0,0,0,0,0,0,0,0,0,0,0,0,0,0,0,0,0,0,0,0,0,0,0,-0.0349,-0.0348,0,-0.0285,-0.0284,-0.0283,-0.024,-0.024,-0.024,-0.024,-0.0158,-0.0156,-0.0155,0,0,0,0,0,0,0,0,0,0,0,0,0,-0.0394,-0.0394,-0.0349,-0.0348,-0.0347,-0.0285,-0.0284,-0.0283,-0.024,-0.024,-0.024,-0.0239,-0.0159,-0.0157,-0.0154,0,0,0,0,0,0,0,0,0,0,0,0,0,-0.0356,-0.0394,-0.0349,-0.0319,-0.0316,-0.0285,-0.0284,-0.0283,-0.024,-0.024,-0.024,-0.0239,-0.016,-0.0157,-0.0154,-0.0143,0,0,-0.0145,-0.0144,0,0,0,0,0,0,0,0,-0.0358,-0.0354,-0.0324,-0.0321,-0.0317,-0.0271,-0.027,-0.0235,-0.024,-0.0268,-0.024,-0.0239,-0.0195,-0.0189,-0.0177,-0.0139,-0.0135,-0.0145,-0.0143,-0.0142,-0.0141,0,0,0,0,0,0,0,-0.0361,-0.0357,-0.0323,-0.0323,-0.0319,-0.0295,-0.029,-0.0263,-0.0233,-0.0266,-0.0263,-0.0257,-0.0193,-0.018,-0.0175,-0.0134,-0.0145,-0.0142,-0.014,-0.0139,-0.0068,-0.0068,0,0,0,0,0,0,-0.0373,-0.0359,-0.0325,-0.0321,-0.0338,-0.0295,-0.0289,-0.0285,-0.0234,-0.0226,-0.0257,-0.0255,-0.0185,-0.0178,-0.0172,-0.0159,-0.0142,-0.0139,-0.0137,-0.0068,-0.0068,-0.0068,0,0,0,0,0,0,-0.0374,-0.0371,-0.0327,-0.0339,-0.0332,-0.0295,-0.0291,-0.0284,-0.0272,-0.0228,-0.0219,-0.0253,-0.0185,-0.0176,-0.0148,-0.0155,-0.0138,-0.0135,-0.0068,-0.0068,-0.0068,-0.0131,0,0,0,0,0,0,-0.0376,-0.0372,-0.0375,-0.034,-0.0332,-0.0316,-0.0291,-0.0283,-0.027,-0.0266,-0.0221,-0.0213,-0.0184,-0.0153,-0.0145,-0.0151,-0.0133,-0.0068,-0.0068,-0.0068,-0.0129,-0.0133,-0.0136,0,0,0,0,0,-0.0378,-0.0387,-0.0376,-0.0372,-0.0338,-0.0317,-0.0311,-0.0282,-0.027,-0.0269,-0.0235,-0.0215,-0.0146,-0.0151,-0.0142,-0.0147,-0.0069,-0.0068,-0.0068,-0.0127,-0.0132,-0.0136,0,0,0,0,0,0,-0.041,-0.0383,-0.037,-0.037,-0.0348,-0.031,-0.0308,-0.0287,-0.026,-0.0257,-0.0214,-0.0203,-0.0181,-0.0153,-0.0159,-0.0123,-0.0103,-0.0101,-0.0152,-0.0156,-0.0159,-0.0166,-0.013,0,0,0,0,0,-0.0419,-0.0418,-0.0387,-0.0388,-0.038,-0.0345,-0.0333,-0.0315,-0.0285,-0.0273,-0.0239,-0.0203,-0.0172,-0.0157,-0.0125,-0.0108,-0.0071,-0.0104,-0.0107,-0.0111,-0.0109,-0.0063,-0.0063,-0.0067,-0.0067,-0.0067,0,0,-0.0432,-0.0417,-0.0417,-0.0395,-0.0375,-0.0371,-0.0337,-0.0326,-0.0319,-0.0268,-0.0251,-0.0215,-0.017,-0.0149,-0.0136,-0.0128,-0.0089,-0.011,-0.0114,-0.011,-0.0063,-0.0063,-0.0062,-0.0067,-0.0067,-0.0067,0,0,-0.0462,-0.0444,-0.0456,-0.0441,-0.0419,-0.0395,-0.0395,-0.036,-0.0341,-0.032,-0.028,-0.0249,-0.0205,-0.0172,-0.0151,-0.0154,-0.011,-0.0144,-0.0169,-0.0126,-0.0125,-0.0124,-0.0078,-0.0072,-0.0147,-0.0147,-0.0147,0,-0.048,-0.0488,-0.0457,-0.0464,-0.0455,-0.0411,-0.042,-0.0395,-0.0354,-0.0336,-0.0324,-0.0247,-0.0216,-0.018,-0.0182,-0.0164,-0.0128,-0.0161,-0.0132,-0.013,-0.0128,-0.008,-0.0073,-0.015,-0.015,-0.015,-0.0149,0,-0.0518,-0.0523,-0.0529,-0.0521,-0.0508,-0.0508,-0.047,-0.0452,-0.0423,-0.0391,-0.0348,-0.0298,-0.0251,-0.0238,-0.0213,-0.0182,-0.0157,-0.0143,-0.0126,-0.0132,-0.008,-0.0072,-0.0155,-0.0154,-0.0153,-0.0152,0,0,-0.0558,-0.0558,-0.0559,-0.0565,-0.0538,-0.053,-0.0517,-0.0486,-0.0468,-0.0425,-0.0396,-0.0346,-0.0309,-0.0281,-0.0241,-0.0204,-0.0165,-0.0173,-0.0169,-0.0135,-0.0061,-0.0025,-0.0011,-0.0146,-0.0145,-0.0144,-0.0032,0,-0.0597,-0.0631,-0.0611,-0.063,-0.0641,-0.0594,-0.0582,-0.0545,-0.05,-0.0459,-0.0398,-0.0357,-0.0328,-0.0305,-0.0265,-0.0182,-0.0145,-0.0196,-0.0052,-0.0048,-0.0022,-0.0002,0.0011,0.0114,-0.0023,-0.0022,-0.0021,0,-0.0639,-0.0655,-0.069,-0.0683,-0.0681,-0.068,-0.064,-0.0622,-0.0551,-0.0513,-0.0457,-0.0401,-0.0335,-0.0314,-0.0185,-0.0217,-0.0148,-0.0088,-0.0082,-0.0019,0.0004,0.01,0.0135,0.0212,-0.0007,-0.0008,-0.0009,0,-0.0687,-0.0704,-0.0735,-0.0734,-0.0721,-0.0718,-0.0702,-0.0643,-0.0618,-0.0544,-0.0509,-0.0423,-0.0366,-0.0277,-0.0151,-0.0167,0.0001,-0.0006,0.0092,0.0096,0.015,0.0157,0.0271,0.0078,0.0077,0.0077,0.0077,0,-0.0737,-0.0757,-0.0762,-0.0779,-0.0799,-0.0767,-0.0762,-0.0726,-0.0665,-0.0624,-0.0543,-0.0482,-0.0353,-0.024,-0.0147,0.0013,0.0007,0.01,0.0131,0.0129,0.0132,0.0238,0.0256,0.0081,0.008,0.0079,0.0079,0,-0.0786,-0.0792,-0.0825,-0.0827,-0.0828,-0.0841,-0.0814,-0.0799,-0.0734,-0.0675,-0.0654,-0.0514,-0.0357,-0.0218,-0.0047,0.0031,0.0222,0.0219,0.0212,0.024,0.0383,0.0396,0.0549,0.0596,0.0339,0.034,0.0342,0,-0.0815,-0.0842,-0.0868,-0.089,-0.0895,-0.0904,-0.0903,-0.0847,-0.0819,-0.0685,-0.0655,-0.0491,-0.0353,-0.0081,0.0083,0.0267,0.0314,0.0374,0.0339,0.0407,0.0445,0.045,0.0478,0.039,0.0391,0.0393,0.0394,0,-0.0864,-0.0875,-0.0902,-0.0953,-0.0969,-0.0977,-0.0966,-0.0951,-0.086,-0.0778,-0.0631,-0.0508,-0.0237,-0.0005,0.0229,0.0329,0.0424,0.0407,0.0485,0.0505,0.0513,0.0567,0.0299,0.0406,0.0405,0.0404,0.0403,0.0403,-0.089,-0.0926,-0.0964,-0.1005,-0.1027,-0.1032,-0.1021,-0.0971,-0.0898,-0.0737,-0.0622,-0.038,-0.0091,0.0251,0.036,0.0577,0.0543,0.0629,0.0644,0.0647,0.0679,0.0439,0.0571,0.0571,0.0571,0.0571,0.057,0,-0.0918,-0.0959,-0.101,-0.1052,-0.1076,-0.1074,-0.1044,-0.0988,-0.0876,-0.0701,-0.0526,-0.0126,0.0157,0.0411,0.0702,0.0807,0.0812,0.0856,0.0862,0.0882,0.0687,0.0674,0.0826,0.0826,0.0826,0.0826,0.0826,0.0826,-0.0933,-0.0992,-0.1022,-0.1076,-0.1099,-0.1092,-0.1062,-0.0943,-0.0802,-0.0495,-0.0227,-0.0019,0.0338,0.0753,0.1004,0.102,0.1093,0.1082,0.1131,0.0983,0.0962,0.0942,0.0937,0.1141,0.1142,0.1317,0.1319,0.132]}],[{"header":{"parameterUnit":"m.s-1","parameterCategory":2,"la1":30.2991,"la2":30.254,"lo1":-89.0895,"lo2":-89.0444,"dy":0.0017,"dx":0.0017,"nx":28,"ny":28,"refTime":"2025-08-09T21:00:00:Z","depth":"2","parameterNumber":2,"parameterNumberName":"U-component_of_CURRENTS"},"data":[0,0,0,0,0,0,0,0,0,0,0,0,0,0,0,0,0,0,0,0,0,0,0,0,0,0,0,0,0,0,0,0,0,0,0,0,0,0,0,0,0,0,0,0,0,0,0,0,0,0,0,0,0,0,0,0,0,0,-0.1804,-0.1804,0,-0.181,-0.181,-0.181,-0.1786,-0.1785,-0.1785,-0.1784,-0.1753,-0.1753,-0.1753,0,0,0,0,0,0,0,0,0,0,0,0,0,-0.1769,-0.1769,-0.1804,-0.1804,-0.1804,-0.181,-0.181,-0.181,-0.1786,-0.1785,-0.1785,-0.1784,-0.1754,-0.1753,-0.1753,0,0,0,0,0,0,0,0,0,0,0,0,0,-0.1778,-0.1769,-0.1804,-0.1794,-0.1794,-0.181,-0.181,-0.181,-0.1786,-0.1785,-0.1784,-0.1784,-0.1754,-0.1753,-0.1753,-0.1765,0,0,-0.1751,-0.1751,0,0,0,0,0,0,0,0,-0.1778,-0.1779,-0.1796,-0.1795,-0.1795,-0.1798,-0.1786,-0.1794,-0.1786,-0.1787,-0.1784,-0.1783,-0.1767,-0.1765,-0.1766,-0.1764,-0.1763,-0.1751,-0.1751,-0.1751,-0.1751,0,0,0,0,0,0,0,-0.1777,-0.1779,-0.1804,-0.1796,-0.1795,-0.1789,-0.179,-0.1788,-0.1779,-0.1787,-0.1785,-0.179,-0.1766,-0.1766,-0.1765,-0.1762,-0.1751,-0.1751,-0.175,-0.175,-0.1777,-0.1778,0,0,0,0,0,0,-0.1782,-0.1779,-0.1804,-0.1804,-0.1786,-0.1791,-0.1791,-0.1796,-0.178,-0.1777,-0.179,-0.1789,-0.1768,-0.1765,-0.1764,-0.1789,-0.1751,-0.175,-0.175,-0.1776,-0.1777,-0.1778,0,0,0,0,0,0,-0.1781,-0.1784,-0.1804,-0.1793,-0.1795,-0.1792,-0.1798,-0.1797,-0.1798,-0.1783,-0.178,-0.1794,-0.1767,-0.1764,-0.1771,-0.1787,-0.175,-0.175,-0.1775,-0.1776,-0.1778,-0.1833,0,0,0,0,0,0,-0.178,-0.1784,-0.1787,-0.1794,-0.1796,-0.1821,-0.1799,-0.1797,-0.1803,-0.18,-0.1785,-0.1781,-0.1766,-0.1772,-0.1771,-0.1786,-0.1749,-0.1773,-0.1775,-0.1777,-0.1829,-0.1836,-0.1841,0,0,0,0,0,-0.1779,-0.179,-0.1787,-0.1791,-0.1802,-0.1822,-0.1823,-0.1816,-0.1804,-0.1812,-0.1803,-0.1782,-0.1782,-0.1773,-0.1771,-0.1786,-0.1773,-0.1775,-0.1777,-0.1827,-0.1834,-0.1841,0,0,0,0,0,0,-0.1775,-0.1789,-0.1786,-0.18,-0.1813,-0.1818,-0.1824,-0.1822,-0.1821,-0.1816,-0.1797,-0.1793,-0.1805,-0.1791,-0.178,-0.18,-0.1773,-0.1775,-0.1812,-0.1819,-0.1825,-0.1826,-0.1749,0,0,0,0,0,-0.1778,-0.1787,-0.1802,-0.1812,-0.1821,-0.1823,-0.1829,-0.1829,-0.1831,-0.1829,-0.1821,-0.1813,-0.1814,-0.1812,-0.1809,-0.1822,-0.1799,-0.183,-0.1836,-0.1841,-0.1841,-0.1831,-0.1835,-0.1786,-0.1786,-0.1786,0,0,-0.1778,-0.1786,-0.1791,-0.1811,-0.1817,-0.1838,-0.1824,-0.1839,-0.1854,-0.1827,-0.1841,-0.1834,-0.1822,-0.1837,-0.184,-0.1826,-0.1842,-0.1844,-0.1848,-0.1846,-0.1833,-0.1838,-0.1842,-0.1787,-0.1787,-0.1787,0,0,-0.1786,-0.1793,-0.1806,-0.1823,-0.1841,-0.1849,-0.1856,-0.187,-0.1873,-0.1891,-0.1875,-0.1881,-0.188,-0.1879,-0.1876,-0.1913,-0.1875,-0.1911,-0.194,-0.193,-0.1934,-0.1937,-0.1909,-0.1909,-0.1912,-0.1913,-0.1913,0,-0.1785,-0.1802,-0.1813,-0.1835,-0.1849,-0.1856,-0.1878,-0.1891,-0.1905,-0.1909,-0.1902,-0.1907,-0.1901,-0.1915,-0.1931,-0.1926,-0.1906,-0.1914,-0.1937,-0.194,-0.1942,-0.1913,-0.1912,-0.1915,-0.1915,-0.1915,-0.1915,0,-0.1805,-0.1822,-0.1834,-0.1862,-0.1882,-0.1901,-0.1926,-0.1943,-0.1946,-0.1953,-0.1969,-0.1966,-0.1965,-0.1971,-0.1964,-0.1981,-0.1956,-0.1947,-0.1918,-0.195,-0.1917,-0.1916,-0.192,-0.1919,-0.1918,-0.1917,0,0,-0.1787,-0.1837,-0.1839,-0.1855,-0.1896,-0.1911,-0.1948,-0.1975,-0.1986,-0.2004,-0.2015,-0.2033,-0.2025,-0.2022,-0.2015,-0.2014,-0.2017,-0.1992,-0.199,-0.1961,-0.198,-0.1898,-0.1887,-0.201,-0.201,-0.2011,-0.1949,0,-0.1794,-0.1833,-0.186,-0.1895,-0.1916,-0.1945,-0.1975,-0.2002,-0.2017,-0.2032,-0.2038,-0.2045,-0.2047,-0.2044,-0.2048,-0.2023,-0.2016,-0.2034,-0.1955,-0.1953,-0.1874,-0.1884,-0.1745,-0.1672,-0.1947,-0.1947,-0.1946,0,-0.1796,-0.1823,-0.1859,-0.1905,-0.1917,-0.1942,-0.1978,-0.2008,-0.204,-0.205,-0.2066,-0.2065,-0.2076,-0.2067,-0.2045,-0.2054,-0.2025,-0.2003,-0.2,-0.1902,-0.1867,-0.1686,-0.1659,-0.1943,-0.1943,-0.1944,-0.1944,0,-0.176,-0.1816,-0.184,-0.1858,-0.1918,-0.1936,-0.1965,-0.2006,-0.2024,-0.2057,-0.2062,-0.2078,-0.207,-0.2055,-0.2021,-0.2032,-0.1978,-0.1983,-0.1878,-0.1871,-0.1725,-0.1705,-0.1961,-0.1961,-0.1961,-0.1961,-0.1961,0,-0.1748,-0.1764,-0.1824,-0.1837,-0.186,-0.1914,-0.1938,-0.1971,-0.2011,-0.202,-0.2062,-0.2057,-0.2067,-0.204,-0.2016,-0.1931,-0.197,-0.1877,-0.1851,-0.1739,-0.1722,-0.1938,-0.1936,-0.1959,-0.1959,-0.196,-0.196,0,-0.1695,-0.174,-0.1765,-0.1826,-0.1842,-0.1855,-0.1913,-0.1926,-0.198,-0.1989,-0.1999,-0.2033,-0.1994,-0.1982,-0.1939,-0.1901,-0.1844,-0.1803,-0.1663,-0.1621,-0.1747,-0.1749,-0.1684,-0.168,-0.1678,-0.1675,-0.1673,0,-0.167,-0.1678,-0.1734,-0.1742,-0.1766,-0.18,-0.1817,-0.1891,-0.1905,-0.1958,-0.1948,-0.194,-0.1887,-0.1801,-0.1745,-0.1666,-0.1745,-0.1497,-0.1499,-0.1738,-0.1719,-0.1725,-0.1731,-0.1325,-0.132,-0.1317,-0.1313,0,-0.1606,-0.1626,-0.1643,-0.1662,-0.1682,-0.1703,-0.1737,-0.1745,-0.1818,-0.1823,-0.1804,-0.1768,-0.1704,-0.1553,-0.1474,-0.1423,-0.1504,-0.1415,-0.1689,-0.1421,-0.1396,-0.1379,-0.1397,-0.1279,-0.1283,-0.1285,-0.1287,-0.1288,-0.154,-0.1532,-0.1553,-0.1558,-0.1582,-0.1579,-0.1552,-0.1589,-0.158,-0.1551,-0.1604,-0.1496,-0.1473,-0.1264,-0.1193,-0.1156,-0.1267,-0.1209,-0.1223,-0.124,-0.1214,-0.1185,-0.1023,-0.1025,-0.1027,-0.1028,-0.103,0,-0.1443,-0.1442,-0.1444,-0.1441,-0.1414,-0.1469,-0.1468,-0.141,-0.1344,-0.1345,-0.1289,-0.1107,-0.0997,-0.0995,-0.0876,-0.0853,-0.0871,-0.082,-0.0842,-0.0875,-0.0905,-0.0865,-0.0579,-0.0578,-0.0577,-0.0576,0,0,-0.1391,-0.135,-0.1348,-0.1265,-0.1262,-0.1181,-0.1151,-0.1082,-0.1048,-0.0934,-0.0875,-0.0918,-0.0937,-0.0749,-0.0711,-0.0624,-0.0748,-0.0593,-0.0949,-0.1006,-0.1035,-0.1117,-0.109,0,0,0,0,0]},{"header":{"parameterUnit":"m.s-1","parameterCategory":2,"la1":30.2991,"la2":30.254,"lo1":-89.0895,"lo2":-89.0444,"dy":0.0017,"dx":0.0017,"nx":28,"ny":28,"refTime":"2025-08-09T21:00:00:Z","depth":"2","parameterNumber":3,"parameterNumberName":"V-component_of_CURRENTS"},"data":[0,0,0,0,0,0,0,0,0,0,0,0,0,0,0,0,0,0,0,0,0,0,0,0,0,0,0,0,0,0,0,0,0,0,0,0,0,0,0,0,0,0,0,0,0,0,0,0,0,0,0,0,0,0,0,0,0,0,-0.0252,-0.0252,0,-0.0197,-0.0197,-0.0196,-0.0161,-0.0161,-0.0161,-0.0161,-0.0093,-0.0092,-0.009,0,0,0,0,0,0,0,0,0,0,0,0,0,-0.0291,-0.0291,-0.0252,-0.0252,-0.0251,-0.0197,-0.0197,-0.0196,-0.0162,-0.0161,-0.0161,-0.0161,-0.0094,-0.0092,-0.009,0,0,0,0,0,0,0,0,0,0,0,0,0,-0.0258,-0.029,-0.0252,-0.0228,-0.0225,-0.0198,-0.0197,-0.0196,-0.0162,-0.0161,-0.0161,-0.0161,-0.0094,-0.0092,-0.009,-0.0078,0,0,-0.0082,-0.0081,0,0,0,0,0,0,0,0,-0.026,-0.0257,-0.0232,-0.0229,-0.0226,-0.0187,-0.0185,-0.0156,-0.0162,-0.0185,-0.0161,-0.0161,-0.0124,-0.0119,-0.0108,-0.0075,-0.0072,-0.0082,-0.008,-0.0079,-0.0078,0,0,0,0,0,0,0,-0.0263,-0.0259,-0.023,-0.0231,-0.0228,-0.0207,-0.0203,-0.0179,-0.0156,-0.0183,-0.0181,-0.0175,-0.0122,-0.0111,-0.0106,-0.0071,-0.0082,-0.0079,-0.0078,-0.0077,-0.0011,-0.0011,0,0,0,0,0,0,-0.0273,-0.0261,-0.0232,-0.0228,-0.0244,-0.0207,-0.0202,-0.0199,-0.0156,-0.0149,-0.0176,-0.0174,-0.0115,-0.0109,-0.0104,-0.0087,-0.0079,-0.0077,-0.0075,-0.0011,-0.0011,-0.0011,0,0,0,0,0,0,-0.0274,-0.0271,-0.0234,-0.0244,-0.0238,-0.0207,-0.0204,-0.0198,-0.0189,-0.0151,-0.0144,-0.0173,-0.0115,-0.0107,-0.0083,-0.0085,-0.0076,-0.0073,-0.0012,-0.0011,-0.0011,-0.0055,0,0,0,0,0,0,-0.0275,-0.0272,-0.0275,-0.0245,-0.0238,-0.0223,-0.0204,-0.0197,-0.0186,-0.0183,-0.0146,-0.0139,-0.0114,-0.0087,-0.0081,-0.0081,-0.0071,-0.0012,-0.0011,-0.0011,-0.0053,-0.0056,-0.0058,0,0,0,0,0,-0.0277,-0.0284,-0.0276,-0.0272,-0.0243,-0.0224,-0.0218,-0.0195,-0.0186,-0.0185,-0.0156,-0.014,-0.0079,-0.0085,-0.0077,-0.0077,-0.0012,-0.0011,-0.0011,-0.0053,-0.0055,-0.0058,0,0,0,0,0,0,-0.0304,-0.0281,-0.0271,-0.0271,-0.0252,-0.0218,-0.0216,-0.0199,-0.0176,-0.0175,-0.0138,-0.0129,-0.0108,-0.0085,-0.0092,-0.0055,-0.0043,-0.0041,-0.0077,-0.0079,-0.0081,-0.0094,-0.0069,0,0,0,0,0,-0.0312,-0.0312,-0.0284,-0.0285,-0.0278,-0.0248,-0.0238,-0.0223,-0.0197,-0.0187,-0.0158,-0.0127,-0.01,-0.0085,-0.0058,-0.004,-0.0012,-0.0033,-0.0035,-0.0037,-0.0041,0.0003,0.0004,-0.0009,-0.0009,-0.0009,0,0,-0.0323,-0.0311,-0.031,-0.0291,-0.0275,-0.0269,-0.0242,-0.0232,-0.0224,-0.0183,-0.0166,-0.0136,-0.0097,-0.0075,-0.0063,-0.0056,-0.0018,-0.0037,-0.0039,-0.0042,0.0003,0.0005,0.0006,-0.0009,-0.0009,-0.0009,0,0,-0.0348,-0.0334,-0.0344,-0.033,-0.031,-0.0289,-0.0289,-0.0259,-0.0242,-0.0222,-0.0188,-0.0158,-0.012,-0.0088,-0.0068,-0.0065,-0.0033,-0.0058,-0.0078,-0.0035,-0.0034,-0.0032,0.0003,0.0008,-0.0057,-0.0057,-0.0058,0,-0.0363,-0.037,-0.0343,-0.0347,-0.034,-0.0302,-0.0309,-0.0285,-0.0249,-0.0234,-0.0224,-0.0156,-0.0126,-0.0089,-0.0089,-0.0071,-0.0044,-0.0074,-0.0039,-0.0037,-0.0034,0.0002,0.0008,-0.006,-0.0059,-0.0059,-0.0059,0,-0.0393,-0.0397,-0.0402,-0.0394,-0.0381,-0.0381,-0.0346,-0.0329,-0.0305,-0.0276,-0.0237,-0.019,-0.0149,-0.0133,-0.0112,-0.0079,-0.0065,-0.0049,-0.0036,-0.0036,0.0002,0.0009,-0.0062,-0.0062,-0.0061,-0.0061,0,0,-0.0427,-0.0425,-0.0426,-0.0432,-0.0407,-0.04,-0.0385,-0.0356,-0.0342,-0.03,-0.0276,-0.0225,-0.0194,-0.0169,-0.0131,-0.0095,-0.0058,-0.0073,-0.0069,-0.0045,0.0032,0.0051,0.0061,-0.0037,-0.0036,-0.0035,0.0051,0,-0.046,-0.0487,-0.0468,-0.0484,-0.0494,-0.0453,-0.0441,-0.0407,-0.0368,-0.0332,-0.0273,-0.0238,-0.0207,-0.0189,-0.0147,-0.0077,-0.0041,-0.0083,0.0035,0.0038,0.0049,0.0069,0.0047,0.0123,0.0059,0.006,0.0061,0,-0.0494,-0.0508,-0.0538,-0.0534,-0.0532,-0.0531,-0.05,-0.0482,-0.0418,-0.0386,-0.0333,-0.0283,-0.0219,-0.0198,-0.0081,-0.011,-0.0048,0.0005,0.001,0.0047,0.007,0.0115,0.0139,0.0073,0.0072,0.0071,0.007,0,-0.0539,-0.0552,-0.058,-0.0579,-0.0569,-0.0568,-0.0555,-0.0503,-0.0483,-0.0418,-0.0392,-0.0307,-0.026,-0.0174,-0.0062,-0.0072,0.0068,0.0073,0.0149,0.0151,0.0166,0.0167,0.015,0.015,0.015,0.015,0.0149,0,-0.0581,-0.06,-0.0606,-0.0622,-0.0646,-0.0616,-0.0618,-0.0587,-0.0536,-0.0507,-0.0426,-0.0378,-0.0253,-0.0155,-0.0065,0.007,0.0072,0.015,0.0178,0.015,0.0149,0.0131,0.0127,0.0153,0.0152,0.0152,0.0151,0,-0.0626,-0.0631,-0.0663,-0.0669,-0.0672,-0.0688,-0.0671,-0.0663,-0.0608,-0.0566,-0.0548,-0.0423,-0.0288,-0.0158,-0.0002,0.0072,0.0193,0.0237,0.0192,0.0214,0.0245,0.0238,0.0328,0.0329,0.033,0.0331,0.0332,0,-0.0652,-0.0676,-0.0706,-0.0729,-0.0736,-0.0751,-0.0756,-0.071,-0.0691,-0.0586,-0.0565,-0.0427,-0.0311,-0.0073,0.0078,0.0245,0.0243,0.0312,0.0291,0.0247,0.0265,0.0256,0.0248,0.0294,0.0295,0.0295,0.0296,0,-0.0697,-0.0709,-0.0736,-0.0789,-0.0811,-0.0825,-0.0824,-0.0818,-0.0746,-0.0683,-0.0567,-0.0464,-0.0235,-0.0042,0.0165,0.0255,0.0282,0.0325,0.031,0.0247,0.0221,0.0237,0.0229,0.0299,0.0299,0.0298,0.0298,0.0298,-0.0723,-0.0757,-0.0796,-0.084,-0.0868,-0.0883,-0.088,-0.0845,-0.0792,-0.0665,-0.0573,-0.0375,-0.0222,0.0099,0.0223,0.0342,0.0339,0.0366,0.0362,0.0359,0.0334,0.0311,0.0401,0.0402,0.0402,0.0402,0.0402,0,-0.075,-0.0788,-0.084,-0.0886,-0.0916,-0.092,-0.0907,-0.0862,-0.0777,-0.0641,-0.0498,-0.027,-0.0065,0.0104,0.0293,0.0388,0.0369,0.0402,0.0353,0.035,0.0346,0.0318,0.0383,0.0383,0.0383,0.0384,0,0,-0.0765,-0.082,-0.0849,-0.0907,-0.0936,-0.0941,-0.0923,-0.0826,-0.0712,-0.0542,-0.0381,-0.0215,-0.0023,0.0105,0.0214,0.0309,0.0302,0.0315,0.032,0.0245,0.024,0.0316,0.0268,0,0,0,0,0]}],[{"header":{"parameterUnit":"m.s-1","parameterCategory":2,"la1":30.2991,"la2":30.254,"lo1":-89.0895,"lo2":-89.0444,"dy":0.0017,"dx":0.0017,"nx":28,"ny":28,"refTime":"2025-08-09T21:00:00:Z","depth":"4","parameterNumber":2,"parameterNumberName":"U-component_of_CURRENTS"},"data":[0,0,0,0,0,0,0,0,0,0,0,0,0,0,0,0,0,0,0,0,0,0,0,0,0,0,0,0,0,0,0,0,0,0,0,0,0,0,0,0,0,0,0,0,0,0,0,0,0,0,0,0,0,0,0,0,0,0,-0.1212,-0.1212,0,-0.1243,-0.1243,-0.1243,-0.1263,-0.1263,-0.1264,-0.1264,-0.1292,-0.1292,-0.1293,0,0,0,0,0,0,0,0,0,0,0,0,0,-0.1165,-0.1166,-0.1212,-0.1212,-0.1213,-0.1243,-0.1243,-0.1243,-0.1263,-0.1263,-0.1264,-0.1264,-0.1292,-0.1292,-0.1293,0,0,0,0,0,0,0,0,0,0,0,0,0,-0.1188,-0.1166,-0.1212,-0.1227,-0.1229,-0.1243,-0.1243,-0.1244,-0.1263,-0.1263,-0.1264,-0.1264,-0.1291,-0.1292,-0.1293,-0.129,0,0,-0.1295,-0.1296,0,0,0,0,0,0,0,0,-0.1187,-0.119,-0.1224,-0.1226,-0.1228,-0.1251,-0.1237,-0.1259,-0.1263,-0.1249,-0.1264,-0.1264,-0.1278,-0.128,-0.1283,-0.1291,-0.1293,-0.1295,-0.1296,-0.1296,-0.1296,0,0,0,0,0,0,0,-0.1185,-0.1189,-0.1223,-0.1225,-0.1227,-0.1232,-0.1235,-0.1241,-0.126,-0.125,-0.1252,-0.1257,-0.1279,-0.1283,-0.1284,-0.1293,-0.1295,-0.1296,-0.1296,-0.1297,-0.1355,-0.1356,0,0,0,0,0,0,-0.1184,-0.1187,-0.1222,-0.1224,-0.121,-0.1232,-0.1236,-0.1242,-0.126,-0.1264,-0.1257,-0.1258,-0.1281,-0.1283,-0.1285,-0.1333,-0.1296,-0.1297,-0.1297,-0.1354,-0.1355,-0.1356,0,0,0,0,0,0,-0.1183,-0.1187,-0.122,-0.1207,-0.1212,-0.1233,-0.1239,-0.1242,-0.1266,-0.1266,-0.1269,-0.128,-0.1281,-0.1284,-0.1312,-0.1332,-0.1297,-0.1298,-0.1353,-0.1354,-0.1356,-0.1397,0,0,0,0,0,0,-0.1182,-0.1186,-0.12,-0.1207,-0.1213,-0.1244,-0.1239,-0.1243,-0.1269,-0.1271,-0.1286,-0.1288,-0.1282,-0.1311,-0.1313,-0.1333,-0.1298,-0.1351,-0.1353,-0.1355,-0.1394,-0.14,-0.1404,0,0,0,0,0,-0.118,-0.1195,-0.1201,-0.1206,-0.1228,-0.1245,-0.1249,-0.1263,-0.127,-0.1285,-0.1298,-0.1288,-0.1325,-0.1313,-0.1315,-0.1335,-0.135,-0.1353,-0.1355,-0.1392,-0.1399,-0.1404,0,0,0,0,0,0,-0.1183,-0.1199,-0.1205,-0.1225,-0.1242,-0.125,-0.1268,-0.1276,-0.1298,-0.1306,-0.1303,-0.1306,-0.1337,-0.1333,-0.1319,-0.1359,-0.1336,-0.1339,-0.1363,-0.137,-0.1375,-0.137,-0.1299,0,0,0,0,0,-0.1189,-0.1205,-0.122,-0.1238,-0.1249,-0.1262,-0.1276,-0.1286,-0.1301,-0.1312,-0.1323,-0.1335,-0.1345,-0.1356,-0.1364,-0.1387,-0.1368,-0.1401,-0.1407,-0.1411,-0.1409,-0.1401,-0.1405,-0.1365,-0.1365,-0.1364,0,0,-0.1197,-0.1207,-0.1217,-0.124,-0.1254,-0.1275,-0.1272,-0.1299,-0.1319,-0.1311,-0.1349,-0.1355,-0.1355,-0.1381,-0.1394,-0.1383,-0.1414,-0.1414,-0.1418,-0.1413,-0.1404,-0.1408,-0.1411,-0.1366,-0.1366,-0.1366,0,0,-0.121,-0.1229,-0.1245,-0.1263,-0.129,-0.1298,-0.1311,-0.1334,-0.1351,-0.1383,-0.1382,-0.14,-0.1423,-0.1424,-0.1425,-0.1464,-0.1441,-0.1473,-0.1497,-0.149,-0.1492,-0.1495,-0.1476,-0.1476,-0.1477,-0.1477,-0.1477,0,-0.1221,-0.1239,-0.1254,-0.1275,-0.1293,-0.1312,-0.1334,-0.1353,-0.1384,-0.1398,-0.1404,-0.1435,-0.1439,-0.1457,-0.1473,-0.1475,-0.1464,-0.1472,-0.1495,-0.1497,-0.1498,-0.1478,-0.1478,-0.1479,-0.1479,-0.1478,-0.1478,0,-0.1239,-0.1264,-0.1278,-0.1308,-0.133,-0.1354,-0.138,-0.1409,-0.1431,-0.1444,-0.1478,-0.1484,-0.1499,-0.1507,-0.1503,-0.1522,-0.1508,-0.1501,-0.1476,-0.1505,-0.1482,-0.1481,-0.1482,-0.1481,-0.1481,-0.148,0,0,-0.1229,-0.128,-0.1287,-0.1306,-0.135,-0.1366,-0.1408,-0.144,-0.1463,-0.1496,-0.152,-0.1542,-0.1547,-0.1549,-0.1549,-0.1546,-0.1551,-0.1535,-0.1534,-0.151,-0.153,-0.1425,-0.1414,-0.155,-0.1551,-0.1551,-0.1509,0,-0.1238,-0.1277,-0.1303,-0.1346,-0.1367,-0.1402,-0.1436,-0.147,-0.1498,-0.1529,-0.154,-0.1564,-0.1563,-0.1574,-0.1574,-0.1558,-0.155,-0.1562,-0.151,-0.1508,-0.1407,-0.141,-0.1551,-0.1508,-0.1507,-0.1507,-0.1507,0,-0.1238,-0.1265,-0.1308,-0.136,-0.1374,-0.1407,-0.1457,-0.149,-0.1534,-0.1556,-0.1583,-0.1592,-0.1606,-0.1597,-0.1579,-0.159,-0.1565,-0.1546,-0.1544,-0.1429,-0.1401,-0.1474,-0.1504,-0.1505,-0.1505,-0.1505,-0.1505,0,-0.1203,-0.1264,-0.1297,-0.1317,-0.1381,-0.1413,-0.1449,-0.15,-0.1524,-0.1575,-0.159,-0.1612,-0.1616,-0.1602,-0.1571,-0.1581,-0.1534,-0.1539,-0.1418,-0.141,-0.1499,-0.1497,-0.1516,-0.1516,-0.1516,-0.1516,-0.1517,0,-0.1183,-0.1212,-0.129,-0.1306,-0.1346,-0.1402,-0.1445,-0.1485,-0.1536,-0.1547,-0.1602,-0.1596,-0.1619,-0.1596,-0.1572,-0.148,-0.1533,-0.1412,-0.1389,-0.1518,-0.1519,-0.1498,-0.1497,-0.1515,-0.1515,-0.1515,-0.1516,0,-0.113,-0.1185,-0.1225,-0.1303,-0.133,-0.1358,-0.1434,-0.1453,-0.1519,-0.1533,-0.1548,-0.1584,-0.1549,-0.1547,-0.151,-0.1458,-0.1397,-0.1351,-0.148,-0.1467,-0.1281,-0.1282,-0.1213,-0.1209,-0.1206,-0.1203,-0.12,0,-0.1102,-0.112,-0.1206,-0.1226,-0.1265,-0.132,-0.1346,-0.1429,-0.1441,-0.1497,-0.1482,-0.1488,-0.1491,-0.1346,-0.1372,-0.1309,-0.1292,-0.1259,-0.1279,-0.1263,-0.1248,-0.1255,-0.1261,-0.1195,-0.1194,-0.1193,-0.1192,0,-0.1038,-0.1082,-0.1111,-0.1154,-0.1192,-0.1224,-0.127,-0.1269,-0.1341,-0.142,-0.1361,-0.1334,-0.1288,-0.1256,-0.1213,-0.1174,-0.1284,-0.1222,-0.123,-0.1248,-0.124,-0.123,-0.124,-0.118,-0.1182,-0.1183,-0.1184,0,-0.0986,-0.099,-0.1033,-0.1055,-0.1102,-0.1098,-0.1142,-0.1141,-0.1165,-0.1234,-0.1207,-0.1215,-0.1257,-0.1184,-0.1145,-0.1098,-0.1085,-0.1052,-0.1068,-0.1082,-0.106,-0.1032,-0.0876,0,0,0,0,0,-0.0923,-0.091,-0.0926,-0.0941,-0.0983,-0.1004,-0.1069,-0.1114,-0.1188,-0.1106,-0.1152,-0.1102,-0.1045,-0.1059,-0.098,-0.1095,-0.1097,-0.1001,-0.107,-0.1113,-0.1127,-0.1114,0,0,0,0,0,0,-0.0879,-0.0889,-0.0887,-0.0835,-0.0823,-0.0849,-0.0884,-0.094,-0.0903,-0.0985,-0.0954,-0.1023,-0.0983,-0.1054,-0.0948,-0.0953,-0.0972,-0.1022,-0.1019,-0.1105,-0.1118,-0.1129,-0.1121,0,0,0,0,0]},{"header":{"parameterUnit":"m.s-1","parameterCategory":2,"la1":30.2991,"la2":30.254,"lo1":-89.0895,"lo2":-89.0444,"dy":0.0017,"dx":0.0017,"nx":28,"ny":28,"refTime":"2025-08-09T21:00:00:Z","depth":"4","parameterNumber":3,"parameterNumberName":"V-component_of_CURRENTS"},"data":[0,0,0,0,0,0,0,0,0,0,0,0,0,0,0,0,0,0,0,0,0,0,0,0,0,0,0,0,0,0,0,0,0,0,0,0,0,0,0,0,0,0,0,0,0,0,0,0,0,0,0,0,0,0,0,0,0,0,-0.016,-0.0159,0,-0.0127,-0.0127,-0.0126,-0.0107,-0.0107,-0.0107,-0.0107,-0.0063,-0.0062,-0.0061,0,0,0,0,0,0,0,0,0,0,0,0,0,-0.018,-0.0179,-0.016,-0.0159,-0.0159,-0.0127,-0.0127,-0.0126,-0.0107,-0.0107,-0.0107,-0.0107,-0.0064,-0.0062,-0.0061,0,0,0,0,0,0,0,0,0,0,0,0,0,-0.0161,-0.0179,-0.016,-0.0146,-0.0145,-0.0127,-0.0127,-0.0126,-0.0107,-0.0107,-0.0107,-0.0107,-0.0064,-0.0063,-0.0061,-0.0051,0,0,-0.0056,-0.0055,0,0,0,0,0,0,0,0,-0.0162,-0.016,-0.0148,-0.0147,-0.0145,-0.0122,-0.0117,-0.0101,-0.0107,-0.0121,-0.0107,-0.0107,-0.0082,-0.0079,-0.0072,-0.0049,-0.0047,-0.0056,-0.0054,-0.0054,-0.0053,0,0,0,0,0,0,0,-0.0163,-0.0161,-0.0146,-0.0148,-0.0146,-0.0133,-0.013,-0.0114,-0.0102,-0.012,-0.0119,-0.0116,-0.0081,-0.0074,-0.0071,-0.0047,-0.0056,-0.0054,-0.0053,-0.0052,-0.0003,-0.0002,0,0,0,0,0,0,-0.017,-0.0163,-0.0147,-0.0145,-0.0154,-0.0132,-0.013,-0.0129,-0.0102,-0.0098,-0.0116,-0.0115,-0.0077,-0.0073,-0.007,-0.0055,-0.0054,-0.0052,-0.0051,-0.0003,-0.0003,-0.0002,0,0,0,0,0,0,-0.017,-0.0169,-0.0149,-0.0153,-0.015,-0.0132,-0.0132,-0.0128,-0.0124,-0.0099,-0.0095,-0.0116,-0.0077,-0.0072,-0.0056,-0.0053,-0.0051,-0.005,-0.0003,-0.0003,-0.0002,-0.0027,0,0,0,0,0,0,-0.0171,-0.0169,-0.0174,-0.0154,-0.015,-0.0143,-0.0132,-0.0128,-0.0123,-0.0121,-0.0098,-0.0093,-0.0077,-0.0058,-0.0054,-0.0051,-0.0049,-0.0004,-0.0003,-0.0003,-0.0026,-0.0027,-0.0028,0,0,0,0,0,-0.0172,-0.0178,-0.0175,-0.0173,-0.0156,-0.0143,-0.014,-0.0126,-0.0123,-0.0122,-0.0104,-0.0094,-0.0051,-0.0057,-0.0052,-0.0048,-0.0004,-0.0003,-0.0003,-0.0026,-0.0027,-0.0028,0,0,0,0,0,0,-0.0189,-0.0176,-0.0172,-0.0174,-0.0162,-0.014,-0.014,-0.013,-0.0116,-0.0117,-0.0092,-0.0086,-0.0071,-0.0055,-0.0062,-0.0031,-0.0025,-0.0024,-0.0045,-0.0046,-0.0046,-0.0058,-0.0047,0,0,0,0,0,-0.0195,-0.0198,-0.018,-0.0183,-0.0179,-0.0161,-0.0155,-0.0147,-0.013,-0.0124,-0.0105,-0.0084,-0.0064,-0.0052,-0.0034,-0.0019,-0.0001,-0.0012,-0.0013,-0.0013,-0.0018,0.0016,0.0018,-0.0,-0.0,-0.0,0,0,-0.0204,-0.0197,-0.0198,-0.0187,-0.0178,-0.0174,-0.0158,-0.0153,-0.0147,-0.0121,-0.011,-0.0089,-0.0061,-0.0043,-0.0034,-0.003,0.0001,-0.0013,-0.0014,-0.0018,0.0017,0.0019,0.002,0.0,0.0,0.0,0,0,-0.022,-0.0215,-0.0222,-0.0214,-0.0203,-0.019,-0.019,-0.017,-0.016,-0.0146,-0.0123,-0.01,-0.0074,-0.0048,-0.0032,-0.0026,-0.0007,-0.0021,-0.0032,0.0002,0.0003,0.0005,0.0025,0.0028,-0.0019,-0.0019,-0.0019,0,-0.0232,-0.0238,-0.0222,-0.0225,-0.0222,-0.0199,-0.0204,-0.0187,-0.0164,-0.0154,-0.0147,-0.0098,-0.0075,-0.0044,-0.0041,-0.0028,-0.0013,-0.0032,-0.0,0.0002,0.0004,0.0024,0.0029,-0.002,-0.002,-0.002,-0.002,0,-0.025,-0.0257,-0.026,-0.0257,-0.025,-0.0251,-0.0227,-0.0217,-0.0202,-0.0181,-0.0153,-0.0116,-0.0086,-0.0071,-0.0056,-0.0027,-0.0022,-0.0008,-0.0,0.0004,0.0025,0.003,-0.0022,-0.0021,-0.0021,-0.0021,0,0,-0.0273,-0.0275,-0.0277,-0.0285,-0.0269,-0.0267,-0.0255,-0.0236,-0.0229,-0.0196,-0.0181,-0.0136,-0.0114,-0.0095,-0.0065,-0.0034,-0.0005,-0.002,-0.0017,-0.0006,0.0059,0.0047,0.0052,0.0014,0.0015,0.0016,0.0065,0,-0.0295,-0.0316,-0.0305,-0.0321,-0.033,-0.0305,-0.0297,-0.0275,-0.0248,-0.0225,-0.0175,-0.0151,-0.0123,-0.011,-0.0073,-0.0021,0.0008,-0.002,0.0057,0.0059,0.0044,0.0057,0.0018,0.0069,0.007,0.0071,0.0072,0,-0.0315,-0.0329,-0.0355,-0.0361,-0.0362,-0.0366,-0.0351,-0.034,-0.0294,-0.0273,-0.0231,-0.0192,-0.0138,-0.0118,-0.0026,-0.0047,-0.0001,0.0039,0.0043,0.0043,0.0057,0.0066,0.0081,0.008,0.008,0.0079,0.0078,0,-0.0345,-0.0362,-0.0388,-0.039,-0.039,-0.0396,-0.0393,-0.0359,-0.035,-0.0303,-0.0289,-0.0217,-0.0183,-0.0111,-0.0025,-0.0026,0.0071,0.0084,0.0118,0.0117,0.0122,0.012,0.0144,0.0144,0.0144,0.0143,0.0143,0,-0.037,-0.0391,-0.0409,-0.0424,-0.0453,-0.0436,-0.0451,-0.0431,-0.04,-0.0386,-0.032,-0.0288,-0.018,-0.0108,-0.0033,0.0056,0.0069,0.0115,0.0132,0.011,0.0106,0.0126,0.0123,0.0145,0.0145,0.0145,0.0144,0,-0.0395,-0.0407,-0.0441,-0.0461,-0.0471,-0.0492,-0.0499,-0.05,-0.0467,-0.0444,-0.0432,-0.0338,-0.024,-0.0135,-0.0013,0.0041,0.0129,0.0156,0.0115,0.0129,0.0153,0.0148,0.0197,0.0197,0.0198,0.0198,0.0198,0,-0.0408,-0.0431,-0.0477,-0.0504,-0.0518,-0.0546,-0.0561,-0.0539,-0.0531,-0.047,-0.0456,-0.0363,-0.0291,-0.0121,-0.0018,0.0121,0.0139,0.0174,0.0172,0.0148,0.016,0.0155,0.0151,0.0198,0.0198,0.0198,0.0198,0,-0.0431,-0.0454,-0.0482,-0.0543,-0.0576,-0.0603,-0.0618,-0.0616,-0.0577,-0.0553,-0.0461,-0.0363,-0.0253,-0.0118,-0.0014,0.0086,0.0147,0.0175,0.0176,0.0174,0.0149,0.016,0.0155,0.0198,0.0198,0.0198,0.0198,0,-0.0446,-0.0476,-0.0521,-0.0568,-0.0615,-0.0638,-0.0646,-0.0619,-0.0602,-0.0523,-0.0495,-0.0364,-0.0284,-0.0136,-0.0038,0.0056,0.008,0.0103,0.0108,0.0109,0.0067,0.0021,0.0046,0,0,0,0,0,-0.0455,-0.0488,-0.054,-0.0588,-0.0634,-0.0654,-0.0669,-0.0662,-0.0628,-0.0565,-0.0523,-0.0413,-0.0245,-0.0169,-0.0075,-0.0054,0.0078,0.0057,0.0103,0.0199,0.0199,0.0164,0,0,0,0,0,0,-0.046,-0.051,-0.0538,-0.059,-0.0622,-0.0661,-0.0668,-0.0648,-0.0601,-0.0554,-0.0459,-0.04,-0.0235,-0.0292,-0.0072,-0.0045,-0.0007,0.0139,0.0141,0.02,0.0199,0.0199,0.0163,0,0,0,0,0]}]]